Weather History for Beckley, WV

Change the Weather History Date:

Wednesday, February 27, 2013

  Actual Average Record
Temperature  
Mean Temperature 36 °F 37 °F  
Max Temperature 41 °F 46 °F 75 °F (1917)
Min Temperature 31 °F 28 °F -8 °F (1963)
Degree Days  
Heating Degree Days 29 28  
Month to date heating degree days 862 829  
Since 1 July heating degree days 3778 3973  
Cooling Degree Days 0 0  
Month to date cooling degree days 0 0  
Year to date cooling degree days 0 0  
Moisture  
Dew Point 31 °F    
Average Humidity 78    
Maximum Humidity 92    
Minimum Humidity 64    
Precipitation  
Precipitation 0.19 in 0.10 in 1.44 in (1902)
Month to date precipitation 1.37 2.65  
Year to date precipitation 6.14 5.46  
Snow  
Snow 1.00 in - - ()
Month to date snowfall 10.4  
Since 1 September snowfall 52.8  
Snow Depth 0.00 in    
Sea Level Pressure  
Sea Level Pressure 29.69 in    
Wind  
Wind Speed 9 mph (WSW)    
Max Wind Speed 18 mph    
Max Gust Speed 26 mph    
Visibility 6 miles    
Events Rain , Snow    
T = Trace of Precipitation, MM = Missing Value Source: NWS Daily Summary

Daily Weather History Graph

Daily Weather History Graph

Search for Another Location

Airport:

Trip Planner

Search our weather history database for the weather conditions in past years. The results will help you decide how hot, cold, wet, or windy it might be!

Date:

Astronomy

Feb. 27, 2013 Rise Set
Actual Time 6:58 AM EST 6:16 PM EST
Civil Twilight 6:32 AM EST 6:42 PM EST
Nautical Twilight 6:01 AM EST 7:13 PM EST
Astronomical Twilight 5:31 AM EST 7:43 PM EST
Moon 8:32 PM EST (2/27) 7:35 AM EST (2/27)
Length of Visible Light 12h 10m
Length of Day
11h 17m
Waning Gibbous, 96% of the Moon is Illuminated
Feb 27
Waning Gibbous
Mar 4
Last Quarter
Mar 11
New
Mar 19
First Quarter
Mar 27
Full

Hourly Weather History & Observations

Time (EST) Temp. Windchill Dew Point Humidity Pressure Visibility Wind Dir Wind Speed Gust Speed Precip Events Conditions
12:33 AM 41.0 °F 37.1 °F 35.6 °F 81% 29.57 in 10.0 mi WSW 5.8 mph - N/A   Overcast
12:48 AM 39.2 °F 33.6 °F 35.6 °F 87% 29.58 in 7.0 mi WNW 8.1 mph - 0.01 in Rain Light Rain
12:49 AM 39.9 °F 33.4 °F 36.0 °F 86% 29.61 in 7.0 mi WNW 10.4 mph - 0.01 in Rain Rain
1:00 AM 39.2 °F 33.0 °F 35.6 °F 87% 29.58 in 10.0 mi West 9.2 mph - 0.00 in Rain Light Rain
1:51 AM 37.9 °F 35.5 °F 35.1 °F 89% 29.62 in 10.0 mi SW 3.5 mph - 0.00 in   Overcast
2:47 AM 37.4 °F 32.8 °F 35.6 °F 93% 29.59 in 7.0 mi SW 5.8 mph - 0.02 in Rain Light Rain
2:51 AM 37.9 °F 34.4 °F 34.0 °F 86% 29.63 in 7.0 mi WSW 4.6 mph - 0.02 in Rain Light Rain
2:58 AM 37.4 °F 32.8 °F 35.6 °F 93% 29.59 in 10.0 mi WSW 5.8 mph - 0.00 in Rain Light Rain
3:51 AM 36.0 °F 29.6 °F 33.1 °F 89% 29.62 in 9.0 mi WSW 8.1 mph 18.4 mph 0.02 in Rain Light Rain
4:23 AM 37.4 °F 31.4 °F 33.8 °F 87% 29.59 in 10.0 mi WSW 8.1 mph - 0.00 in   Overcast
4:47 AM 37.4 °F 29.3 °F 33.8 °F 87% 29.60 in 8.0 mi West 12.7 mph 19.6 mph 0.00 in Rain Light Rain
4:51 AM 35.1 °F 25.2 °F 32.0 °F 89% 29.66 in 5.0 mi West 16.1 mph 21.9 mph 0.01 in Rain Heavy Rain
5:51 AM 35.1 °F 30.1 °F 32.0 °F 89% 29.68 in 10.0 mi West 5.8 mph - 0.01 in   Overcast
6:30 AM 35.6 °F 31.7 °F 32.0 °F 87% 29.64 in 10.0 mi West 4.6 mph - N/A   Overcast
6:42 AM 35.6 °F 29.9 °F 30.2 °F 81% 29.65 in 9.0 mi West 6.9 mph - 0.00 in Snow Light Snow
6:51 AM 34.0 °F 28.0 °F 30.9 °F 89% 29.70 in 9.0 mi WNW 6.9 mph - 0.00 in Rain Light Rain
7:00 AM 33.8 °F 28.6 °F 30.2 °F 87% 29.65 in 10.0 mi West 5.8 mph - N/A   Overcast
7:27 AM 35.6 °F 30.7 °F 30.2 °F 81% 29.67 in 10.0 mi WSW 5.8 mph - N/A   Overcast
7:36 AM 35.6 °F 30.7 °F 30.2 °F 81% 29.67 in 7.0 mi WSW 5.8 mph - 0.00 in Snow Light Snow
7:42 AM 33.8 °F 27.7 °F 30.2 °F 87% 29.68 in 4.0 mi SW 6.9 mph - 0.00 in Snow Light Snow
7:51 AM 34.0 °F 26.6 °F 30.9 °F 89% 29.74 in 3.0 mi WSW 9.2 mph - 0.00 in Snow Light Snow
8:04 AM 33.8 °F 26.4 °F 32.0 °F 93% 29.69 in 1.8 mi WSW 9.2 mph - 0.00 in Snow Light Snow
8:08 AM 33.8 °F 25.8 °F 30.2 °F 87% 29.69 in 0.8 mi West 10.4 mph 17.3 mph 0.01 in Snow Light Snow
8:13 AM 33.8 °F 27.0 °F 30.2 °F 87% 29.69 in 1.0 mi West 8.1 mph - 0.01 in Snow Light Snow
8:17 AM 33.8 °F 28.6 °F 30.2 °F 87% 29.69 in 4.0 mi WSW 5.8 mph - 0.01 in Snow Light Snow
8:27 AM 33.8 °F 28.6 °F 32.0 °F 93% 29.69 in 10.0 mi SW 5.8 mph - 0.01 in   Overcast
8:34 AM 33.8 °F 28.6 °F 32.0 °F 93% 29.69 in 10.0 mi SW 5.8 mph - 0.01 in   Overcast
8:51 AM 35.1 °F 27.4 °F 32.0 °F 89% 29.73 in 10.0 mi WSW 10.4 mph - 0.01 in Rain Light Rain
9:15 AM 35.6 °F 27.5 °F 30.2 °F 81% 29.69 in 10.0 mi WSW 11.5 mph - 0.00 in   Overcast
9:51 AM 36.0 °F 29.0 °F 32.0 °F 86% 29.74 in 10.0 mi WSW 9.2 mph - 0.00 in Rain Light Rain
10:01 AM 35.6 °F 28.0 °F 30.2 °F 81% 29.70 in 10.0 mi WSW 10.4 mph - 0.00 in   Overcast
10:11 AM 35.6 °F 29.2 °F 32.0 °F 87% 29.71 in 10.0 mi WSW 8.1 mph - 0.00 in   Overcast
10:51 AM 36.0 °F 28.0 °F 30.9 °F 82% 29.76 in 10.0 mi WSW 11.5 mph 17.3 mph 0.00 in Rain Light Rain
11:43 AM 35.6 °F 27.5 °F 30.2 °F 81% 29.73 in 2.5 mi West 11.5 mph - 0.00 in Snow Light Snow
11:51 AM 36.0 °F 28.5 °F 33.1 °F 89% 29.77 in 4.0 mi West 10.4 mph - 0.00 in Snow Light Snow
12:09 PM 37.4 °F 29.3 °F 33.8 °F 87% 29.72 in 10.0 mi West 12.7 mph - 0.00 in   Overcast
12:51 PM 37.9 °F 30.5 °F 28.9 °F 70% 29.75 in 10.0 mi WSW 11.5 mph - 0.00 in   Overcast
1:05 PM 37.4 °F 29.8 °F 28.4 °F 70% 29.70 in 10.0 mi WSW 11.5 mph 21.9 mph N/A   Overcast
1:27 PM 39.2 °F 32.0 °F 30.2 °F 70% 29.69 in 10.0 mi SW 11.5 mph - N/A   Overcast
1:51 PM 37.9 °F 30.0 °F 28.9 °F 70% 29.73 in 10.0 mi WSW 12.7 mph 19.6 mph N/A   Overcast
2:51 PM 39.0 °F 31.0 °F 28.9 °F 67% 29.72 in 10.0 mi West 13.8 mph 19.6 mph N/A   Overcast
3:51 PM 37.9 °F 30.9 °F 28.9 °F 70% 29.72 in 10.0 mi WSW 10.4 mph 18.4 mph N/A   Overcast
4:51 PM 37.9 °F 30.5 °F 28.9 °F 70% 29.73 in 10.0 mi SW 11.5 mph - N/A   Overcast
5:51 PM 37.9 °F 32.1 °F 30.0 °F 73% 29.74 in 10.0 mi SW 8.1 mph - N/A   Overcast
6:51 PM 36.0 °F 29.0 °F 30.0 °F 79% 29.77 in 10.0 mi WSW 9.2 mph 17.3 mph 0.00 in Rain Light Rain
7:42 PM 33.8 °F 25.8 °F 30.2 °F 87% 29.71 in 5.0 mi SW 10.4 mph - 0.01 in Snow Light Snow
7:49 PM 33.8 °F 25.8 °F 30.2 °F 87% 29.71 in 5.0 mi SW 10.4 mph - 0.01 in Snow Light Snow
7:51 PM 34.0 °F 28.0 °F 30.9 °F 89% 29.77 in 4.0 mi SW 6.9 mph - 0.01 in Snow Light Snow
8:35 PM 33.8 °F 27.7 °F 30.2 °F 87% 29.71 in 1.8 mi WSW 6.9 mph - 0.01 in Snow Light Snow
8:42 PM 33.8 °F 26.4 °F 30.2 °F 87% 29.71 in 1.2 mi WSW 9.2 mph - 0.01 in Snow Light Snow
8:51 PM 33.1 °F 26.9 °F 30.9 °F 92% 29.78 in 0.8 mi West 6.9 mph - 0.02 in Snow Light Snow
9:14 PM 33.8 °F 27.7 °F 30.2 °F 87% 29.71 in 1.5 mi WSW 6.9 mph - 0.03 in Snow Light Snow
9:39 PM 33.8 °F 26.4 °F 30.2 °F 87% 29.71 in 1.8 mi WSW 9.2 mph - 0.04 in Snow Light Snow
9:46 PM 33.8 °F 24.3 °F 30.2 °F 87% 29.71 in 2.0 mi WSW 13.8 mph 18.4 mph 0.04 in Snow Light Snow
9:51 PM 33.1 °F 24.4 °F 30.0 °F 89% 29.77 in 2.5 mi SW 11.5 mph 18.4 mph 0.04 in Snow Light Snow
9:57 PM 33.8 °F 26.4 °F 30.2 °F 87% 29.70 in 4.0 mi WSW 9.2 mph - 0.00 in Snow Light Snow
10:16 PM 32.0 °F 24.2 °F 30.2 °F 93% 29.71 in 2.5 mi West 9.2 mph - 0.00 in Snow Light Snow
10:24 PM 32.0 °F 25.6 °F 30.2 °F 93% 29.71 in 0.8 mi WNW 6.9 mph - 0.00 in Snow Light Snow
10:31 PM 32.0 °F 25.6 °F 30.2 °F 93% 29.71 in 1.0 mi West 6.9 mph - 0.01 in Snow Light Snow
10:46 PM 32.0 °F 24.8 °F 30.2 °F 93% 29.70 in 2.0 mi West 8.1 mph - 0.02 in Snow Light Snow
10:51 PM 32.0 °F 24.8 °F 30.0 °F 92% 29.77 in 3.0 mi West 8.1 mph - 0.02 in Snow Light Snow
11:06 PM 32.0 °F 24.8 °F 30.2 °F 93% 29.70 in 2.0 mi West 8.1 mph - 0.00 in Snow Light Snow
11:21 PM 30.2 °F 21.3 °F 28.4 °F 93% 29.70 in 2.5 mi West 10.4 mph - 0.00 in Snow Light Snow
11:25 PM 30.2 °F 22.6 °F 28.4 °F 93% 29.70 in 3.0 mi West 8.1 mph - 0.00 in Snow Light Snow
11:38 PM 30.2 °F 21.9 °F 28.4 °F 93% 29.70 in 2.0 mi West 9.2 mph - 0.00 in Snow Light Snow
11:43 PM 30.2 °F 21.3 °F 28.4 °F 93% 29.70 in 1.0 mi West 10.4 mph - 0.01 in Snow Light Snow
11:51 PM 30.9 °F 22.2 °F 28.9 °F 92% 29.76 in 1.5 mi West 10.4 mph - 0.01 in Snow Light Snow
11:53 PM 30.2 °F 21.9 °F 28.4 °F 93% 29.70 in 1.5 mi West 9.2 mph - 0.00 in Snow Light Snow